Preview of NWS' New Version of Forecast
This preview is not operational and should not be used for support decisions.

Regional Weather Roundup (RWR)

Issued by National Weather Service (NWS)

                            
000
ASUS43 KMKX 181520
RWRWI 

WISCONSIN REGIONAL WEATHER ROUNDUP
NATIONAL WEATHER SERVICE MILWAUKEE/SULLIVAN WI
900 AM CST MON FEB 18 2019

NOTE: "FAIR" INDICATES FEW OR NO CLOUDS BELOW 12,000 FEET WITH NO
SIGNIFICANT WEATHER AND/OR OBSTRUCTIONS TO VISIBILITY.

WIZ001-002-006>008-014>016-023>028-181600-
NORTHWEST WISCONSIN
  
CITY           SKY/WX    TMP DP  RH WIND       PRES   REMARKS
SUPERIOR ARPT  CLOUDY     4  -1  78 CALM      30.45R                  
ASHLAND        CLOUDY     7   1  76 N6        30.42R WCI  -3          
HAYWARD        FAIR       1  -3  83 CALM      30.37R                  
SIREN          FAIR      -1  -5  82 CALM      30.41R                  
CUMBERLAND     FAIR       7   1  78 NE6       30.37S WCI  -3          
RICE LAKE      FAIR       4   2  91 N5        30.40R WCI  -6          
CHETEK         FAIR       6   2  86 CALM      30.39R                  
LADYSMITH      FAIR       6   4  89 N3        30.37R                  
EAU CLAIRE     FAIR       8   1  73 NE7       30.38R WCI  -3          
MENOMONIE      FAIR       2  -3  79 CALM      30.40R                  
NEW RICHMOND   FAIR       3  -1  82 CALM      30.41R                  
OSCEOLA        SNOW       1  -1  88 CALM      30.46R VSB 1/4          
$$
 
WIZ003>005-009-010-017-018-181600-
NORTH CENTRAL WISCONSIN
  
CITY           SKY/WX    TMP DP  RH WIND       PRES   REMARKS
MANITOWISH WTR NOT AVBL                                               
ARBOR VITAE    CLOUDY    11   6  80 N7        30.30R WCI   1          
WOODRUFF       CLOUDY    11   6  80 N7        30.30R WCI   1          
RHINELANDER    FAIR       9   2  73 N5        30.29R WCI   1          
EAGLE RIVER    CLOUDY     7   1  78 NE9       30.28R WCI  -7          
LAND O LAKES   CLOUDY     7   2  82 N8        30.31R WCI  -6          
PHILLIPS       CLOUDY     4   2  90 N6        30.31R WCI  -7          
TOMAHAWK       FAIR       8   4  86 NE3       30.31R                  
MEDFORD        FAIR       7   1  75 N6        30.30R WCI  -3          
MERRILL        FAIR       9   1  72 N6        30.32R WCI  -1          
$$
 
WIZ029-030-035-036-043>047-181600-
CENTRAL WISCONSIN
  
CITY           SKY/WX    TMP DP  RH WIND       PRES   REMARKS
WAUSAU         FAIR       9   1  70 N8        30.30R WCI  -3          
MOSINEE        MOSUNNY    9   3  78 N9        30.31R WCI  -5          
MARSHFIELD     FAIR       9   2  73 NE13      30.30R WCI  -7          
STEVENS POINT  FAIR       9   2  74 N8        30.32R WCI  -3          
WAUPACA        FAIR      17   6  63 N9        30.34R WCI   5          
WAUTOMA        FAIR      16   7  67 N8        30.33  WCI   5          
WISC RAPIDS    FAIR      11   1  64 N10       30.33R WCI  -3          
CAMP DOUGLAS   FAIR      12   5  74 N5        30.34R WCI   4          
$$
 
WIZ011>013-019>022-031-037>040-048>050-181600-
NORTHEAST WISCONSIN
  
CITY           SKY/WX    TMP DP  RH WIND       PRES   REMARKS
ANTIGO         FAIR       8   2  78 N8        30.29R WCI  -5          
SHAWANO        FAIR      21  13  70 NE6       30.33R WCI  14          
OCONTO         FAIR      15   7  71 N6        30.33R WCI   6          
STURGEON BAY   FAIR      14   9  80 N13       30.32R WCI   0          
GREEN BAY      FAIR      17   7  64 N10       30.31R WCI   5          
MANITOWOC      CLOUDY    17  10  74 N15       30.30R WCI   2          
APPLETON       MOSUNNY   12   3  67 N12       30.28R WCI  -2          
CLINTONVILLE   FAIR      13   4  66 N7        30.33R WCI   3          
OSHKOSH        FAIR      14   6  70 N10       30.30R WCI   1          
$$
 
WIZ032>034-041-042-053>061-181600-
SOUTHWEST WISCONSIN
  
CITY           SKY/WX    TMP DP  RH WIND       PRES   REMARKS
LA CROSSE      CLOUDY    12   6  77 NW9       30.38R WCI   0          
SPARTA         FAIR      12   9  87 CALM      30.36R                  
VIROQUA        FAIR      13  10  87 N5        30.32R WCI   6          
BOSCOBEL       FAIR      17  13  84 CALM      30.36R                  
PRAIRIE DU CHI FAIR      16   8  72 NW6       30.37R WCI   7          
PLATTEVILLE    FAIR      16  13  90 N8        30.31R WCI   5          
$$

WIZ056-057-062-063-064-067-068-181600-
SOUTH CENTRAL WISCONSIN
  
CITY           SKY/WX    TMP DP  RH WIND       PRES   REMARKS
REEDSBURG      FAIR      16   8  72 CALM      30.33R                  
BARABOO/DELLS  FAIR      15   8  73 N3        30.32R                  
LONE ROCK      FAIR      16  10  77 CALM      30.35R                  
MINERAL POINT  FAIR      19  16  86 N7        30.29R WCI  10          
MADISON        FAIR      16   9  74 N7        30.30R WCI   6          
MIDDLETON      CLOUDY    17  11  78 N6        30.32R WCI   8          
WATERTOWN      FAIR      16  10  77 N10       30.30R WCI   4          
MONROE         FAIR      18  12  77 MISG      30.28R                  
JANESVILLE     MOSUNNY   19  12  73 N6        30.28R WCI  11          
$$
 
WIZ051-052-058>065-066-070>072-181600-
SOUTHEAST WISCONSIN
  
CITY           SKY/WX    TMP DP  RH WIND       PRES   REMARKS
MILWAUKEE      FAIR      21  11  65 NW10      30.27R WCI  10          
WAUKESHA       SUNNY     18  10  73 N6        30.28R WCI   9          
MILWAUKEE/TIMM SUNNY     18   9  68 NW9       30.28R WCI   6          
RACINE         FAIR      20  14  77 N10       30.28R WCI   9          
KENOSHA        FAIR      21  15  78 N10       30.26R WCI  10          
FOND DU LAC    FAIR      14   7  73 N7        30.31R WCI   4          
SHEBOYGAN      PTSUNNY   16   8  71 N15       30.28R WCI   1          
WEST BEND      FAIR      18  12  79 N6        30.28R WCI   9          
JUNEAU         FAIR      13   8  79 N13       30.30R WCI  -1          
$$

LSZ147-162-181600-
LAKE SUPERIOR
  
STATION/POSITION TIME  TEMP    WIND        PRES    WAVE
                       AIR SEA DIR/SP/G            HT/PER
                 (UTC) (F)     (DEG/KT/KT) (MB)    (FT/S)
DEVILS ISLAND    1500   10      50/  4/  6 1032.0R
SAXON HARBOR     1440   11      40/  8/ 11 1029.5R
$$
 
LMZ867-665-643>646-181600-
LAKE MICHIGAN
  
STATION/POSITION TIME  TEMP    WIND        PRES    WAVE
                       AIR SEA DIR/SP/G            HT/PER
                 (UTC) (F)     (DEG/KT/KT) (MB)    (FT/S)
CHAMBERS ISLAND  1440   14     310/  9/ 10 1025.4R
NORTHPORT PIER   1509   14     320/  5/  7 1026.4
KEWAUNEE LAKESHO 1454   16     360/  6/ 12 1025.0R
SHEBOYGAN LAKESH 1500   17     340/ 13/ 16 1026.6R
PORT WASHINGTON  1430   17     320/  8/ 14 1026.4R
KENOSHA   LAKESH 1500   20     340/ 11/ 14 1024.7
$$

TC  - TEMPERATURE IN CELSIUS
VSB - VISIBILITY IN STATUTE MILES
WCI - WIND CHILL INDEX
HX  - HEAT INDEX